Voltar ao catálogo

STARLINK-35544

AtivoComunicaçõesVLEO
NORAD 65922·PAYLOAD·🇺🇸 United States

Lançado Oct 8, 2025 de Vandenberg Space Force Base

Loading…

Próximas Passagens (próximas 24 horas)

TLE

AtualizadoSource: CelesTrak SupGP

Época: Sep 15, 2026, 03:16 UTC

1 65922C 25225N   26258.13659722  .00072498  00000+0  21412-2 0  2587
2 65922  53.1600   2.4251 0001175  74.0331 144.8631 15.34365320    17

Acompanhe STARLINK-35544 em tempo real com AllMySat

Download on the App Store